Time,TemperatureF,DewpointF,PressureIn,WindDirection,WindDirectionDegrees,WindSpeedMPH,WindSpeedGustMPH,Humidity,HourlyPrecipIn,Conditions,Clouds,dailyrainin,SolarRadiationWatts/m^2,SoftwareType,DateUTC
2013-02-23 00:11:00,34.0,22.0,-100.00,South,178,7.0,19.0,61,0.00,,,0.01,1.000000,,2013-02-23 08:11:00,
2013-02-23 00:21:00,34.0,22.0,-100.00,South,178,7.0,19.0,61,0.00,,,0.01,1.000000,,2013-02-23 08:21:00,
2013-02-23 00:31:00,34.0,22.0,-100.00,South,178,7.0,19.0,61,0.00,,,0.01,1.000000,,2013-02-23 08:31:00,
2013-02-23 00:41:00,34.0,22.0,-100.00,South,178,7.0,19.0,61,0.00,,,0.01,1.000000,,2013-02-23 08:41:00,
2013-02-23 00:51:00,34.0,22.0,-100.00,SW,225,8.0,19.0,61,0.00,,,0.01,1.000000,,2013-02-23 08:51:00,
2013-02-23 01:11:00,34.0,22.0,-100.00,SW,225,8.0,19.0,61,0.00,,,0.01,1.000000,,2013-02-23 09:11:00,
2013-02-23 01:21:00,34.0,22.0,-100.00,SW,225,8.0,19.0,61,0.00,,,0.01,1.000000,,2013-02-23 09:21:00,
2013-02-23 01:31:00,34.0,22.0,-100.00,SW,225,8.0,19.0,61,0.00,,,0.01,1.000000,,2013-02-23 09:31:00,
2013-02-23 01:41:00,34.0,22.0,-100.00,SW,225,8.0,19.0,61,0.00,,,0.01,1.000000,,2013-02-23 09:41:00,
2013-02-23 01:51:00,32.0,20.0,-100.00,SSW,211,7.0,21.0,62,0.00,,,0.01,1.000000,,2013-02-23 09:51:00,
2013-02-23 02:11:00,32.0,20.0,-100.00,SSW,211,7.0,21.0,62,0.00,,,0.01,1.000000,,2013-02-23 10:11:00,
2013-02-23 02:21:00,32.0,20.0,-100.00,SSW,211,7.0,21.0,62,0.00,,,0.01,1.000000,,2013-02-23 10:21:00,
2013-02-23 02:31:00,32.0,20.0,-100.00,SSW,211,7.0,21.0,62,0.00,,,0.01,1.000000,,2013-02-23 10:31:00,
2013-02-23 02:41:00,32.0,20.0,-100.00,SSW,211,7.0,21.0,62,0.00,,,0.01,1.000000,,2013-02-23 10:41:00,
2013-02-23 02:51:00,34.0,23.0,-100.00,SSW,196,7.0,24.0,63,0.00,,,0.01,1.000000,,2013-02-23 10:51:00,
2013-02-23 03:11:00,34.0,23.0,-100.00,SSW,196,7.0,24.0,63,0.00,,,0.01,1.000000,,2013-02-23 11:11:00,
2013-02-23 03:21:00,34.0,23.0,-100.00,SSW,196,7.0,24.0,63,0.00,,,0.01,1.000000,,2013-02-23 11:21:00,
2013-02-23 03:32:00,34.0,23.0,-100.00,SSW,196,7.0,24.0,63,0.00,,,0.01,1.000000,,2013-02-23 11:32:00,
2013-02-23 03:41:00,34.0,23.0,-100.00,SSW,196,7.0,24.0,63,0.00,,,0.01,1.000000,,2013-02-23 11:41:00,
2013-02-23 03:51:00,34.0,26.0,-100.00,SW,233,5.0,17.0,71,0.00,,,0.01,1.000000,,2013-02-23 11:51:00,
2013-02-23 04:21:00,34.0,26.0,-100.00,SW,233,5.0,17.0,71,0.00,,,0.01,1.000000,,2013-02-23 12:21:00,
2013-02-23 04:32:00,34.0,26.0,-100.00,SW,233,5.0,17.0,71,0.00,,,0.01,1.000000,,2013-02-23 12:32:00,
2013-02-23 04:42:00,34.0,26.0,-100.00,SW,233,5.0,17.0,71,0.00,,,0.01,1.000000,,2013-02-23 12:42:00,
2013-02-23 04:51:00,32.0,23.0,-100.00,SW,235,11.0,27.0,70,0.00,,,0.01,1.000000,,2013-02-23 12:51:00,
2013-02-23 05:11:00,32.0,23.0,-100.00,SW,235,11.0,27.0,70,0.00,,,0.01,1.000000,,2013-02-23 13:11:00,
2013-02-23 05:22:00,32.0,23.0,-100.00,SW,235,11.0,27.0,70,0.00,,,0.01,1.000000,,2013-02-23 13:22:00,
2013-02-23 05:31:00,32.0,23.0,-100.00,SW,235,11.0,27.0,70,0.00,,,0.01,1.000000,,2013-02-23 13:31:00,
2013-02-23 05:42:00,32.0,23.0,-100.00,SW,235,11.0,27.0,70,0.00,,,0.01,1.000000,,2013-02-23 13:42:00,
2013-02-23 05:51:00,31.0,23.0,-100.00,SW,228,12.0,30.0,73,0.00,,,0.01,1.000000,,2013-02-23 13:51:00,
2013-02-23 06:11:00,31.0,23.0,-100.00,SW,228,12.0,30.0,73,0.00,,,0.01,1.000000,,2013-02-23 14:11:00,
2013-02-23 06:21:00,31.0,23.0,-100.00,SW,228,12.0,30.0,73,0.00,,,0.01,1.000000,,2013-02-23 14:21:00,
2013-02-23 06:32:00,31.0,23.0,-100.00,SW,228,12.0,30.0,73,0.00,,,0.01,1.000000,,2013-02-23 14:32:00,
2013-02-23 06:41:00,31.0,23.0,-100.00,SW,228,12.0,30.0,73,0.00,,,0.01,1.000000,,2013-02-23 14:41:00,
2013-02-23 06:51:00,30.0,19.0,-100.00,SW,215,10.0,26.0,63,0.00,,,0.01,2.000000,,2013-02-23 14:51:00,
2013-02-23 07:21:00,30.0,19.0,-100.00,SW,215,10.0,26.0,63,0.00,,,0.01,2.000000,,2013-02-23 15:21:00,
2013-02-23 07:31:00,30.0,19.0,-100.00,SW,215,10.0,26.0,63,0.00,,,0.01,2.000000,,2013-02-23 15:31:00,
2013-02-23 07:41:00,30.0,19.0,-100.00,SW,215,10.0,26.0,63,0.00,,,0.01,2.000000,,2013-02-23 15:41:00,
2013-02-23 07:51:00,31.0,20.0,-100.00,SW,223,5.0,19.0,63,0.00,,,0.01,36.000000,,2013-02-23 15:51:00,
2013-02-23 08:21:00,31.0,20.0,-100.00,SW,223,5.0,19.0,63,0.00,,,0.01,36.000000,,2013-02-23 16:21:00,
2013-02-23 08:31:00,31.0,20.0,-100.00,SW,223,5.0,19.0,63,0.00,,,0.01,36.000000,,2013-02-23 16:31:00,
2013-02-23 08:42:00,31.0,20.0,-100.00,SW,223,5.0,19.0,63,0.00,,,0.01,36.000000,,2013-02-23 16:42:00,
2013-02-23 08:51:00,37.0,14.0,-100.00,SW,229,4.0,10.0,38,0.00,,,0.00,189.000000,,2013-02-23 16:51:00,
2013-02-23 09:11:00,37.0,14.0,-100.00,SW,229,4.0,10.0,38,0.00,,,0.00,189.000000,,2013-02-23 17:11:00,
2013-02-23 09:21:00,37.0,14.0,-100.00,SW,229,4.0,10.0,38,0.00,,,0.00,189.000000,,2013-02-23 17:21:00,
2013-02-23 09:31:00,37.0,14.0,-100.00,SW,229,4.0,10.0,38,0.00,,,0.00,189.000000,,2013-02-23 17:31:00,
2013-02-23 09:41:00,37.0,14.0,-100.00,SW,229,4.0,10.0,38,0.00,,,0.00,189.000000,,2013-02-23 17:41:00,
2013-02-23 10:12:00,40.0,5.0,-100.00,NNE,14,4.0,14.0,23,0.00,,,0.00,505.000000,,2013-02-23 18:12:00,
2013-02-23 10:51:00,36.0,12.0,-100.00,NE,54,6.0,14.0,37,0.00,,,0.00,429.000000,,2013-02-23 18:51:00,
2013-02-23 11:11:00,36.0,12.0,-100.00,NE,54,6.0,14.0,37,0.00,,,0.00,429.000000,,2013-02-23 19:11:00,
2013-02-23 11:21:00,36.0,12.0,-100.00,NE,54,6.0,14.0,37,0.00,,,0.00,429.000000,,2013-02-23 19:21:00,
2013-02-23 11:32:00,36.0,12.0,-100.00,NE,54,6.0,14.0,37,0.00,,,0.00,429.000000,,2013-02-23 19:32:00,
2013-02-23 11:41:00,36.0,12.0,-100.00,NE,54,6.0,14.0,37,0.00,,,0.00,429.000000,,2013-02-23 19:41:00,
2013-02-23 11:51:00,34.0,16.0,-100.00,NNW,346,4.0,12.0,48,0.00,,,0.00,276.000000,,2013-02-23 19:51:00,
2013-02-23 12:11:00,34.0,16.0,-100.00,NNW,346,4.0,12.0,48,0.00,,,0.00,276.000000,,2013-02-23 20:11:00,
2013-02-23 12:21:00,34.0,16.0,-100.00,NNW,346,4.0,12.0,48,0.00,,,0.00,276.000000,,2013-02-23 20:21:00,
2013-02-23 12:31:00,34.0,16.0,-100.00,NNW,346,4.0,12.0,48,0.00,,,0.00,276.000000,,2013-02-23 20:31:00,
2013-02-23 12:41:00,34.0,16.0,-100.00,NNW,346,4.0,12.0,48,0.00,,,0.00,276.000000,,2013-02-23 20:41:00,
2013-02-23 12:51:00,39.0,18.0,-100.00,NNW,335,4.0,10.0,42,0.00,,,0.00,443.000000,,2013-02-23 20:51:00,
2013-02-23 13:11:00,39.0,18.0,-100.00,NNW,335,4.0,10.0,42,0.00,,,0.00,443.000000,,2013-02-23 21:11:00,
2013-02-23 13:22:00,39.0,18.0,-100.00,NNW,335,4.0,10.0,42,0.00,,,0.00,443.000000,,2013-02-23 21:22:00,
2013-02-23 13:31:00,39.0,18.0,-100.00,NNW,335,4.0,10.0,42,0.00,,,0.00,443.000000,,2013-02-23 21:31:00,
2013-02-23 13:41:00,39.0,18.0,-100.00,NNW,335,4.0,10.0,42,0.00,,,0.00,443.000000,,2013-02-23 21:41:00,
2013-02-23 13:51:00,37.0,13.0,-100.00,NNW,344,5.0,9.0,37,0.00,,,0.00,522.000000,,2013-02-23 21:51:00,
2013-02-23 14:11:00,37.0,13.0,-100.00,NNW,344,5.0,9.0,37,0.00,,,0.00,522.000000,,2013-02-23 22:11:00,
2013-02-23 14:21:00,37.0,13.0,-100.00,NNW,344,5.0,9.0,37,0.00,,,0.00,522.000000,,2013-02-23 22:21:00,
2013-02-23 14:31:00,37.0,13.0,-100.00,NNW,344,5.0,9.0,37,0.00,,,0.00,522.000000,,2013-02-23 22:31:00,
2013-02-23 14:41:00,37.0,13.0,-100.00,NNW,344,5.0,9.0,37,0.00,,,0.00,522.000000,,2013-02-23 22:41:00,
2013-02-23 14:51:00,33.0,8.0,-100.00,NNE,16,5.0,11.0,34,0.00,,,0.00,279.000000,,2013-02-23 22:51:00,
2013-02-23 15:21:00,33.0,8.0,-100.00,NNE,16,5.0,11.0,34,0.00,,,0.00,279.000000,,2013-02-23 23:21:00,
2013-02-23 15:31:00,33.0,8.0,-100.00,NNE,16,5.0,11.0,34,0.00,,,0.00,279.000000,,2013-02-23 23:31:00,
2013-02-23 15:41:00,33.0,8.0,-100.00,NNE,16,5.0,11.0,34,0.00,,,0.00,279.000000,,2013-02-23 23:41:00,
2013-02-23 15:51:00,32.0,7.0,-100.00,North,352,5.0,10.0,35,0.00,,,0.00,182.000000,,2013-02-23 23:51:00,
2013-02-23 16:11:00,32.0,7.0,-100.00,North,352,5.0,10.0,35,0.00,,,0.00,182.000000,,2013-02-24 00:11:00,
2013-02-23 16:22:00,32.0,7.0,-100.00,North,352,5.0,10.0,35,0.00,,,0.00,182.000000,,2013-02-24 00:22:00,
2013-02-23 16:32:00,32.0,7.0,-100.00,North,352,5.0,10.0,35,0.00,,,0.00,182.000000,,2013-02-24 00:32:00,
2013-02-23 16:42:00,32.0,7.0,-100.00,North,352,5.0,10.0,35,0.00,,,0.00,182.000000,,2013-02-24 00:42:00,
2013-02-23 16:51:00,30.0,5.0,-100.00,NNW,336,4.0,12.0,34,0.00,,,0.00,126.000000,,2013-02-24 00:51:00,
2013-02-23 17:11:00,30.0,5.0,-100.00,NNW,336,4.0,12.0,34,0.00,,,0.00,126.000000,,2013-02-24 01:11:00,
2013-02-23 17:22:00,30.0,5.0,-100.00,NNW,336,4.0,12.0,34,0.00,,,0.00,126.000000,,2013-02-24 01:22:00,
2013-02-23 17:31:00,30.0,5.0,-100.00,NNW,336,4.0,12.0,34,0.00,,,0.00,126.000000,,2013-02-24 01:31:00,
2013-02-23 17:41:00,30.0,5.0,-100.00,NNW,336,4.0,12.0,34,0.00,,,0.00,126.000000,,2013-02-24 01:41:00,
2013-02-23 17:51:00,26.0,4.0,-100.00,North,11,3.0,9.0,38,0.00,,,0.00,32.000000,,2013-02-24 01:51:00,
2013-02-23 18:11:00,26.0,4.0,-100.00,North,11,3.0,9.0,38,0.00,,,0.00,32.000000,,2013-02-24 02:11:00,
2013-02-23 18:21:00,26.0,4.0,-100.00,North,11,3.0,9.0,38,0.00,,,0.00,32.000000,,2013-02-24 02:21:00,
2013-02-23 18:31:00,26.0,4.0,-100.00,North,11,3.0,9.0,38,0.00,,,0.00,32.000000,,2013-02-24 02:31:00,
2013-02-23 18:41:00,26.0,4.0,-100.00,North,11,3.0,9.0,38,0.00,,,0.00,32.000000,,2013-02-24 02:41:00,
2013-02-23 19:51:00,24.0,6.0,-100.00,North,355,4.0,10.0,46,-99.99,,,0.00,1.000000,,2013-02-24 03:51:00,
2013-02-23 20:11:00,24.0,6.0,-100.00,North,355,4.0,10.0,46,-99.99,,,0.00,1.000000,,2013-02-24 04:11:00,
2013-02-23 20:21:00,24.0,6.0,-100.00,North,355,4.0,10.0,46,-99.99,,,0.00,1.000000,,2013-02-24 04:21:00,
2013-02-23 20:31:00,24.0,6.0,-100.00,North,355,4.0,10.0,46,-99.99,,,0.00,1.000000,,2013-02-24 04:31:00,
2013-02-23 20:41:00,24.0,6.0,-100.00,North,355,4.0,10.0,46,-99.99,,,0.00,1.000000,,2013-02-24 04:41:00,
2013-02-23 20:51:00,23.0,7.0,-100.00,North,6,5.0,13.0,50,0.00,,,0.00,1.000000,,2013-02-24 04:51:00,
2013-02-23 21:22:00,23.0,7.0,-100.00,North,6,5.0,13.0,50,0.00,,,0.00,1.000000,,2013-02-24 05:22:00,
2013-02-23 21:32:00,23.0,7.0,-100.00,North,6,5.0,13.0,50,0.00,,,0.00,1.000000,,2013-02-24 05:32:00,
2013-02-23 21:42:00,23.0,7.0,-100.00,North,6,5.0,13.0,50,0.00,,,0.00,1.000000,,2013-02-24 05:42:00,
2013-02-23 21:51:00,23.0,6.0,-100.00,North,355,4.0,14.0,47,0.00,,,0.00,1.000000,,2013-02-24 05:51:00,
2013-02-23 22:21:00,23.0,6.0,-100.00,North,355,4.0,14.0,47,0.00,,,0.00,1.000000,,2013-02-24 06:21:00,
2013-02-23 22:31:00,23.0,6.0,-100.00,North,355,4.0,14.0,47,0.00,,,0.00,1.000000,,2013-02-24 06:31:00,
2013-02-23 22:41:00,23.0,6.0,-100.00,North,355,4.0,14.0,47,0.00,,,0.00,1.000000,,2013-02-24 06:41:00,
2013-02-23 22:51:00,20.0,6.0,-100.00,NNE,23,3.0,7.0,54,0.00,,,0.00,1.000000,,2013-02-24 06:51:00,
2013-02-23 23:21:00,20.0,6.0,-100.00,NNE,23,3.0,7.0,54,0.00,,,0.00,1.000000,,2013-02-24 07:21:00,
2013-02-23 23:31:00,20.0,6.0,-100.00,NNE,23,3.0,7.0,54,0.00,,,0.00,1.000000,,2013-02-24 07:31:00,
2013-02-23 23:41:00,20.0,6.0,-100.00,NNE,23,3.0,7.0,54,0.00,,,0.00,1.000000,,2013-02-24 07:41:00,